SCP
0 -0 -0 0 0 0 0 0 0 0 -0 0 0 0 0 -0 -0 0 0 0 0 0 0 0 -0 -0 -0 -0 -0 -0 -0 -0
0 -0 -0 -0 0 0 0 0 0 0 -0 -0 0 0 0 -0 -0 0 0 0 -0 0 0 -0 -0 -0 -0 -0 -0 -0 -0 -0
0 -0 0 0 0 0 0 0 0 0 -0 0 -0 0 -0 -0 -0 -0 0 -0 -0 0 0 0 -0 -0 0 -0 -0 -0 -0 -0
0 -0 0 0 0 0 0 0 0 0 0 -0 -0 -0 -0 -0 -0 -0 -0 -0 -0 0 0 0 -0 0 0 0 0 0 0 0
-0 -0 0 0 0 0 0 0 0 0 -0 -0 -0 -0 -0 -0 -0 -0 0 -0 -0 0 0 0 0 0 0 0 0 0 0 0
-0 -0 0 0 0 0 0 -0 0 0 0 -0 -0 0 0 0 0 -0 0 0 0 0 0 0 0 0 0 0 0 0 0 0
0 -0 0 0 0 0 0 0 0 0 0 0 -0 0 0 0 0 0 0 0 0 0 0 0 0 0 0 0 0 0 0 0
0 0 0 0 0 0 0 0 0 0 0 0 0 0 0 0 0 0 0 0 0 0 0 0 0 0 0 0 0 0 0 0
0 0 0 0 0 0 0 -0 0 0 0 0 0 -0 -0 0 0 0 0 0 0 0 0 -0 0 0 0 0 0 0 0 0
0 0 0 0 0 0 0 -0 0 0 0 0 0 0 -0 0 0 0 0 0 0 0 1 -0 0 0 0 0 0 0 0 0
0 0 0 0 0 0 0 0 0 0 0 0 0 0 -0 0 0 0 0 0 0 0 0 0 0 0 0 0 0 0 0 0
0 0 0 0 0 0 0 0 0 0 0 0 0 0 0 0 0 0 0 0 0 0 1 0 0 0 0 0 0 0 0 0
0 0 0 0 -0 -0 -0 0 0 0 0 0 0 0 0 0 0 0 0 0 0 0 1 0 0 0 0 0 0 0 0 1
0 0 0 0 0 0 0 -0 0 0 0 0 0 0 0 0 1 1 1 1 0 0 1 1 1 1 0 0 1 0 0 1
-0 0 0 0 0 -0 0 0 0 0 0 0 0 0 1 1 1 1 1 1 1 1 0 1 1 1 1 1 1 1 1 1
0 0 0 0 0 -0 0 0 0 0 0 0 0 0 0 0 1 2 1 2 1 1 1 2 2 1 1 1 1 1 1 1
0 0 0 0 0 -0 0 0 0 0 0 0 0 0 0 0 0 0 1 2 1 1 1 1 1 1 1 1 1 1 1 1
0 0 0 0 -0 0 0 0 0 0 0 0 0 0 0 0 1 1 0 0 1 1 1 1 1 1 1 1 1 1 1 1
0 0 0 0 -0 0 0 0 0 0 0 0 0 0 0 0 0 1 1 1 1 1 1 1 1 2 3 2 2 1 1 1
0 0 0 0 0 0 0 0 0 0 0 0 0 0 0 0 0 0 1 1 1 1 1 1 1 1 2 1 1 1 1 1
Wind_Speed_500mb
19 28 28 13 11 13 16 12 5 8 1 10 12 9 10 24 42 41 37 38 41 43 40 38 34 31 28 26 22 20 18 15
21 37 29 15 15 9 6 12 3 5 23 13 6 4 9 32 44 38 37 36 40 41 38 35 33 31 28 25 22 19 17 15
27 36 22 5 5 7 13 5 13 5 19 10 8 15 29 40 40 38 37 34 42 41 38 35 33 31 29 26 21 19 17 15
27 33 11 3 5 15 17 19 11 16 5 18 19 26 35 36 36 36 37 33 41 41 36 35 31 31 29 24 20 18 17 15
38 31 19 13 4 21 21 24 14 3 11 22 25 29 32 34 34 35 35 34 40 40 40 37 35 32 28 25 22 19 17 14
35 28 14 13 21 12 18 21 9 5 9 32 29 33 33 31 32 34 34 33 36 39 40 39 36 33 30 27 25 22 19 17
34 33 15 10 18 12 12 19 5 19 11 16 27 31 32 31 32 34 34 34 34 34 36 34 31 35 33 31 28 25 23 22
21 14 9 1 13 10 14 32 18 17 12 17 22 30 34 34 34 38 37 36 35 35 35 34 29 32 36 34 33 29 27 24
6 12 14 21 18 19 26 33 34 30 33 21 19 30 32 30 31 37 37 37 38 40 41 37 34 30 32 29 29 30 28 27
30 12 24 33 32 12 32 34 12 21 23 23 22 29 30 28 29 34 37 38 38 39 44 42 32 33 29 33 31 29 31 33
33 25 33 31 28 32 25 42 5 3 10 21 21 29 27 26 27 31 36 39 40 39 41 42 41 32 31 33 31 29 29 32
33 37 37 33 39 39 28 35 14 15 24 24 20 30 28 23 25 30 34 37 38 40 40 37 41 38 33 34 34 36 31 31
35 36 36 32 38 40 37 33 31 29 26 22 28 28 30 24 23 27 30 32 36 37 37 38 38 39 33 31 32 32 34 36
36 38 39 30 36 42 39 36 29 34 29 26 23 32 33 23 19 23 28 34 35 35 36 36 36 34 33 32 39 35 34 34
34 26 28 33 38 37 53 46 28 37 34 30 27 35 24 20 24 25 27 32 36 36 35 36 36 35 34 35 35 34 36 35
32 22 30 34 39 36 21 20 29 40 40 33 27 8 5 6 21 16 27 31 33 34 37 38 34 35 34 35 37 36 38 37
20 31 23 37 35 41 18 21 26 19 23 26 9 5 3 2 4 18 26 29 32 34 36 40 39 36 33 38 36 38 38 39
32 27 23 32 37 30 15 20 13 14 14 17 20 15 9 8 7 6 7 17 24 30 33 39 38 40 37 33 35 36 37 42
34 27 27 32 42 24 19 18 15 13 18 16 16 19 16 19 20 16 14 7 8 25 30 36 39 37 39 39 40 38 43 44
36 28 27 41 35 43 39 35 30 31 28 24 23 21 22 25 26 28 25 21 17 11 27 42 36 42 45 46 43 46 45 42
Wind_Direction_500mb
234 246 272 79 138 88 105 126 154 129 117 37 59 23 145 156 154 156 154 157 169 166 166 167 171 168 167 165 160 159 152 141
256 260 268 67 94 24 179 137 144 356 97 104 55 116 155 150 152 157 157 160 170 170 168 168 172 173 171 169 167 163 155 149
237 261 282 100 23 294 282 100 147 187 100 82 122 118 139 146 155 155 159 171 174 172 171 171 174 175 177 175 170 167 164 159
246 233 240 216 306 269 271 271 116 165 249 86 141 141 146 152 158 160 163 172 175 174 176 173 174 177 177 176 176 176 171 167
268 281 192 221 309 254 259 235 168 27 234 111 142 156 155 159 162 167 169 169 174 177 180 178 177 178 179 180 181 184 181 175
259 272 224 116 263 266 258 248 83 96 301 143 155 163 163 166 170 174 172 174 170 174 182 183 182 181 185 186 189 188 186 188
249 247 221 154 249 173 281 275 204 184 31 100 157 166 169 170 174 178 177 180 178 176 179 178 188 189 191 194 196 194 195 200
295 235 275 106 264 255 237 216 183 173 119 138 156 170 175 179 180 182 181 183 182 179 186 179 192 203 198 204 205 201 206 208
306 298 287 287 281 240 257 231 213 196 169 164 172 179 185 186 186 188 188 187 186 181 193 186 187 205 195 208 204 208 208 220
272 231 242 252 256 288 248 252 237 173 132 160 181 183 190 191 186 187 187 189 188 190 194 184 195 203 200 205 210 210 209 215
248 249 246 248 258 250 235 247 120 84 180 176 185 187 196 192 187 189 190 193 191 197 199 195 193 209 204 210 216 216 218 219
242 239 239 239 248 237 245 242 183 221 207 193 198 196 195 197 196 193 193 196 193 199 205 202 202 198 212 214 213 211 217 219
246 242 244 232 246 241 243 215 218 212 226 220 191 201 198 199 204 201 201 198 199 202 208 204 210 213 210 218 219 224 217 221
229 216 229 231 244 232 222 232 216 233 223 221 218 206 211 211 209 208 204 203 204 207 212 213 208 217 216 224 220 218 230 224
258 185 221 208 247 250 209 221 220 236 230 231 221 222 215 195 222 216 209 208 207 208 209 216 220 215 220 220 226 224 226 225
251 177 226 227 237 252 173 215 225 243 246 244 232 144 359 235 216 207 217 211 214 218 214 213 220 225 219 225 227 227 226 225
268 252 201 239 228 244 161 228 229 234 238 235 165 135 235 324 257 228 214 213 219 222 221 217 218 221 224 226 230 231 226 228
258 259 221 247 247 216 157 215 193 196 178 166 167 157 137 89 70 77 190 213 224 228 227 226 223 226 225 232 234 236 230 227
258 253 224 244 246 170 169 178 174 157 140 139 144 134 106 81 73 67 59 38 265 234 222 233 230 233 233 228 233 231 230 227
269 248 244 211 245 191 188 192 182 162 155 143 141 118 99 82 69 56 50 43 25 301 249 230 230 235 230 235 235 237 233 233
Wind_Speed_850mb
19 28 28 13 11 13 16 12 5 8 1 10 12 9 10 24 42 41 37 38 41 43 40 38 34 31 28 26 22 20 18 15
21 37 29 15 15 9 6 12 3 5 23 13 6 4 9 32 44 38 37 36 40 41 38 35 33 31 28 25 22 19 17 15
27 36 22 5 5 7 13 5 13 5 19 10 8 15 29 40 40 38 37 34 42 41 38 35 33 31 29 26 21 19 17 15
27 33 11 3 5 15 17 19 11 16 5 18 19 26 35 36 36 36 37 33 41 41 36 35 31 31 29 24 20 18 17 15
38 31 19 13 4 21 21 24 14 3 11 22 25 29 32 34 34 35 35 34 40 40 40 37 35 32 28 25 22 19 17 14
35 28 14 13 21 12 18 21 9 5 9 32 29 33 33 31 32 34 34 33 36 39 40 39 36 33 30 27 25 22 19 17
34 33 15 10 18 12 12 19 5 19 11 16 27 31 32 31 32 34 34 34 34 34 36 34 31 35 33 31 28 25 23 22
21 14 9 1 13 10 14 32 18 17 12 17 22 30 34 34 34 38 37 36 35 35 35 34 29 32 36 34 33 29 27 24
6 12 14 21 18 19 26 33 34 30 33 21 19 30 32 30 31 37 37 37 38 40 41 37 34 30 32 29 29 30 28 27
30 12 24 33 32 12 32 34 12 21 23 23 22 29 30 28 29 34 37 38 38 39 44 42 32 33 29 33 31 29 31 33
33 25 33 31 28 32 25 42 5 3 10 21 21 29 27 26 27 31 36 39 40 39 41 42 41 32 31 33 31 29 29 32
33 37 37 33 39 39 28 35 14 15 24 24 20 30 28 23 25 30 34 37 38 40 40 37 41 38 33 34 34 36 31 31
35 36 36 32 38 40 37 33 31 29 26 22 28 28 30 24 23 27 30 32 36 37 37 38 38 39 33 31 32 32 34 36
36 38 39 30 36 42 39 36 29 34 29 26 23 32 33 23 19 23 28 34 35 35 36 36 36 34 33 32 39 35 34 34
34 26 28 33 38 37 53 46 28 37 34 30 27 35 24 20 24 25 27 32 36 36 35 36 36 35 34 35 35 34 36 35
32 22 30 34 39 36 21 20 29 40 40 33 27 8 5 6 21 16 27 31 33 34 37 38 34 35 34 35 37 36 38 37
20 31 23 37 35 41 18 21 26 19 23 26 9 5 3 2 4 18 26 29 32 34 36 40 39 36 33 38 36 38 38 39
32 27 23 32 37 30 15 20 13 14 14 17 20 15 9 8 7 6 7 17 24 30 33 39 38 40 37 33 35 36 37 42
34 27 27 32 42 24 19 18 15 13 18 16 16 19 16 19 20 16 14 7 8 25 30 36 39 37 39 39 40 38 43 44
36 28 27 41 35 43 39 35 30 31 28 24 23 21 22 25 26 28 25 21 17 11 27 42 36 42 45 46 43 46 45 42
Wind_Direction_850mb
234 246 272 79 138 88 105 126 154 129 117 37 59 23 145 156 154 156 154 157 169 166 166 167 171 168 167 165 160 159 152 141
256 260 268 67 94 24 179 137 144 356 97 104 55 116 155 150 152 157 157 160 170 170 168 168 172 173 171 169 167 163 155 149
237 261 282 100 23 294 282 100 147 187 100 82 122 118 139 146 155 155 159 171 174 172 171 171 174 175 177 175 170 167 164 159
246 233 240 216 306 269 271 271 116 165 249 86 141 141 146 152 158 160 163 172 175 174 176 173 174 177 177 176 176 176 171 167
268 281 192 221 309 254 259 235 168 27 234 111 142 156 155 159 162 167 169 169 174 177 180 178 177 178 179 180 181 184 181 175
259 272 224 116 263 266 258 248 83 96 301 143 155 163 163 166 170 174 172 174 170 174 182 183 182 181 185 186 189 188 186 188
249 247 221 154 249 173 281 275 204 184 31 100 157 166 169 170 174 178 177 180 178 176 179 178 188 189 191 194 196 194 195 200
295 235 275 106 264 255 237 216 183 173 119 138 156 170 175 179 180 182 181 183 182 179 186 179 192 203 198 204 205 201 206 208
306 298 287 287 281 240 257 231 213 196 169 164 172 179 185 186 186 188 188 187 186 181 193 186 187 205 195 208 204 208 208 220
272 231 242 252 256 288 248 252 237 173 132 160 181 183 190 191 186 187 187 189 188 190 194 184 195 203 200 205 210 210 209 215
248 249 246 248 258 250 235 247 120 84 180 176 185 187 196 192 187 189 190 193 191 197 199 195 193 209 204 210 216 216 218 219
242 239 239 239 248 237 245 242 183 221 207 193 198 196 195 197 196 193 193 196 193 199 205 202 202 198 212 214 213 211 217 219
246 242 244 232 246 241 243 215 218 212 226 220 191 201 198 199 204 201 201 198 199 202 208 204 210 213 210 218 219 224 217 221
229 216 229 231 244 232 222 232 216 233 223 221 218 206 211 211 209 208 204 203 204 207 212 213 208 217 216 224 220 218 230 224
258 185 221 208 247 250 209 221 220 236 230 231 221 222 215 195 222 216 209 208 207 208 209 216 220 215 220 220 226 224 226 225
251 177 226 227 237 252 173 215 225 243 246 244 232 144 359 235 216 207 217 211 214 218 214 213 220 225 219 225 227 227 226 225
268 252 201 239 228 244 161 228 229 234 238 235 165 135 235 324 257 228 214 213 219 222 221 217 218 221 224 226 230 231 226 228
258 259 221 247 247 216 157 215 193 196 178 166 167 157 137 89 70 77 190 213 224 228 227 226 223 226 225 232 234 236 230 227
258 253 224 244 246 170 169 178 174 157 140 139 144 134 106 81 73 67 59 38 265 234 222 233 230 233 233 228 233 231 230 227
269 248 244 211 245 191 188 192 182 162 155 143 141 118 99 82 69 56 50 43 25 301 249 230 230 235 230 235 235 237 233 233